Location: Unspecified
(47.9110°N, 14.3980°E)
Time: 07:53:01
(UTC+00:00)

Cosmos 968 Rocket - Pass Details

Date: 06 August 2020
Orbit: 740 x 772 km, 74.0° (Epoch: 27 September)

Event Time Altitude Azimuth Distance (km) Brightness Sun altitude
Exits shadow 22:39:11 33° 89° (E) 1,233 4.4 -25.4°
Drops below altitude 10° 22:43:14 10° 39° (NE) 2,263 6.5 -25.5°
Sets 22:45:46 0° 30° (NNE) 3,194 7.5 -25.5°
